Content
SEND FEEDBACK

Daily
Averages
Monthly
Summary
United States of America

EL PASO, TEXAS


Home > North America > United States > Texas
Elevation: 3918 feet     Latitude: 31 48N     Longitude: 106 24W

WEATHER
 
SELECT A DAY
Number of Records: 176,167;   Date Range: 1/1/95 - 12/27/14
 
SHARE

PRINT THIS DATA

[ ← Previous Day ]
WEATHER ALMANAC - OCTOBER 25, 2013
[ Next Day → ]
[ °C ]   °F
Weather ElementAverageHighLow
Temperature67.5 °F79 °F (3:51 pm)57 °F (7:51 am)
Dewpoint39.7 °F46.9 °F (7:51 am)35.1 °F (1:51 am)
Humidity38.2 %69 % (7:51 am)23 % (1:51 pm)
Barometer29.97 in30.05 in (8:51 am)29.90 in (4:51 pm)
Wind Speed6.8 mph13.8 mph (5:51 am)
Wind Gust18.4 mph (11:51 am)
Weather ElementAverage
Visibility10 mi
Wind DirectionESE (113 °)

Weather ElementTotal
Precipitation---
Cooling Degree Days3 (Base 65)
Growing Degree Days18 (Base 50)
Averaged from 23 records on October 25, 2013
WEATHER CONDITIONS BREAKOUT
WIND DIRECTION BREAKOUT
WEATHER BY HOUR - OCTOBER 25, 2013
[ °C ]   °F
Local TimeTemperatureDewpointHumidityBarometerVisibilityWind DirectionWind SpeedGust SpeedPrecipitationEventsConditions
1:51 AM66.0 °F35.1 °F32 %29.94 in10.0 miCalmMostly Cloudy
2:51 AM63.0 °F36.0 °F37 %29.94 in10.0 miCalmMostly Cloudy
3:51 AM62.1 °F36.0 °F38 %29.95 in10.0 miNorth (10°)5.8 mphMostly Cloudy
4:51 AM60.1 °F37.0 °F42 %29.96 in10.0 miNNE (20°)8.1 mphMostly Cloudy
5:51 AM59.0 °F37.9 °F46 %30.00 in10.0 miNorth (360°)13.8 mphMostly Cloudy
6:51 AM57.9 °F42.1 °F56 %30.02 in10.0 miNorth (360°)9.2 mphMostly Cloudy
7:51 AM57.0 °F46.9 °F69 %30.03 in10.0 miNorth (350°)11.5 mphScattered Clouds
8:51 AM62.1 °F43.0 °F50 %30.05 in10.0 miNNE (30°)4.6 mphMostly Cloudy
9:51 AM66.9 °F42.1 °F40 %30.05 in10.0 miEast (100°)9.2 mphScattered Clouds
10:51 AM70.0 °F39.9 °F33 %30.03 in10.0 miESE (120°)6.9 mph17.3 mphScattered Clouds
11:51 AM72.0 °F39.9 °F31 %30.01 in10.0 miESE (120°)10.4 mph18.4 mphScattered Clouds
12:51 PM75.0 °F37.0 °F25 %29.97 in10.0 miSE (130°)11.5 mph18.4 mphScattered Clouds
1:51 PM77.0 °F36.0 °F23 %29.94 in10.0 miESE (120°)6.9 mphPartly Cloudy
2:51 PM78.1 °F37.0 °F23 %29.92 in10.0 miESE (110°)4.6 mphScattered Clouds
3:51 PM79.0 °F37.9 °F23 %29.91 in10.0 miSE (130°)9.2 mphScattered Clouds
4:51 PM78.1 °F37.0 °F23 %29.90 in10.0 miSSE (160°)6.9 mphPartly Cloudy
5:51 PM77.0 °F37.0 °F24 %29.90 in10.0 miSSE (150°)8.1 mphPartly Cloudy
6:51 PM72.0 °F42.1 °F34 %29.94 in10.0 miESE (110°)12.7 mphPartly Cloudy
7:51 PM68.0 °F43.0 °F40 %29.96 in10.0 miESE (110°)10.4 mphPartly Cloudy
8:51 PM66.0 °F43.0 °F43 %29.97 in10.0 miNNE (30°)3.5 mphPartly Cloudy
9:51 PM63.0 °F43.0 °F48 %29.98 in10.0 miCalmPartly Cloudy
10:51 PM62.1 °F42.1 °F48 %29.99 in10.0 miCalmPartly Cloudy
11:51 PM61.0 °F42.1 °F50 %29.98 in10.0 miEast (80°)3.5 mphClear
Hourly data recorded from KELP, located miles away from El Paso, Texas







STORIES FROM OUR PARTNERS